Погода в Полянице

Украина / Ивано-Франковская область     48°20′55″N   24°26′39″E
темп.,
°C
ветер,
м/с
пор.,
м/с
влажн.,
%
обл.,
%
осадки,
мм/ч
давл.,
гПа
погр.,
м
16 июня, ср
ср1600:00+11с119791 0.1 101727
03:00+11ссв1298100 0.1 101761
06:00+11ссв1198100 0.2 101637
09:00+13ссв238869 0.3 1017520
12:00+16св247076 0.4 10171160
15:00+18ссв456076 0.6 10171504
18:00+17св456712 0.1 10171183
21:00+12всв219710 0.3 101924
17 июня, чт
чт1700:00+10ссв119856 0.0 102013
03:00+11ссв119868 0.0 102019
06:00+11св129782 0.0 102047
09:00+15св248157 0.3 1021811
12:00+17св3465100 0.4 10211249
15:00+19св4456100 0.4 10201534
18:00+18св3469100 0.2 10211051
21:00+13св229758 0.4 102234
18 июня, пт
пт1800:00+12св119866 0.0 102318
03:00+13всв119656 0.0 102232
06:00+13св119794 0.0 102237
09:00+16св238684 0.1 1022395
12:00+19всв23655 0.1 1021987
15:00+22всв455526 0.1 10201623
18:00+19всв346818 0.2 10201057
21:00+14св229788 0.4 102137
19 июня, сб
сб1900:00+13всв219923 0.2 102229
03:00+12в119844 0.2 102115
06:00+11в21971 0.0 102124
09:00+16всв258289 0.0 1021801
12:00+20всв3559100 0.1 10201394
15:00+21всв4556100 0.1 10181590
18:00+17всв2470100 0.1 1019893
21:00+14всв229437 0.3 101940
20 июня, вс
вс2000:00+11в11977 0.0 102015
03:00+10юв119693 0.0 102013
06:00+11вюв119694 0.0 101919
09:00+16в127137 0.0 1018463
12:00+21в2353100 0.0 10171410
15:00+19в237146 1.2 1017858
18:00+19всв236831 1.0 1016912
21:00+15всв2196100 1.4 101718